TimeCST,TemperatureF,Dew PointF,Humidity,Sea Level PressureIn,VisibilityMPH,Wind Direction,Wind SpeedMPH,Gust SpeedMPH,PrecipitationIn,Events,Conditions,WindDirDegrees,DateUTC
12:15 AM,41.4,24.8,52,30.14,10.0,North,12.7,24.2,N/A,,Clear,350,2012-12-26 06:15:00
12:35 AM,40.8,24.6,53,30.15,10.0,NNW,11.5,19.6,N/A,,Clear,340,2012-12-26 06:35:00
12:55 AM,40.1,24.4,54,30.15,10.0,NNW,11.5,-,N/A,,Clear,340,2012-12-26 06:55:00
1:15 AM,39.4,24.4,55,30.15,10.0,NNW,11.5,-,N/A,,Clear,340,2012-12-26 07:15:00
1:35 AM,38.7,24.4,57,30.15,10.0,NNW,10.4,-,N/A,,Clear,330,2012-12-26 07:35:00
1:55 AM,38.3,24.4,57,30.15,10.0,NNW,13.8,-,N/A,,Clear,330,2012-12-26 07:55:00
2:15 AM,38.5,24.1,56,30.15,10.0,NNW,11.5,-,N/A,,Clear,340,2012-12-26 08:15:00
2:35 AM,38.3,23.9,56,30.15,10.0,North,11.5,-,N/A,,Clear,350,2012-12-26 08:35:00
3:15 AM,37.8,23.5,57,30.16,10.0,North,10.4,-,N/A,,Clear,350,2012-12-26 09:15:00
3:35 AM,37.2,23.4,57,30.17,10.0,North,6.9,-,N/A,,Clear,350,2012-12-26 09:35:00
3:55 AM,36.9,23.2,58,30.18,10.0,North,10.4,16.1,N/A,,Clear,350,2012-12-26 09:55:00
4:15 AM,37.2,22.8,56,30.19,10.0,NNW,8.1,-,N/A,,Clear,340,2012-12-26 10:15:00
4:35 AM,36.5,22.8,58,30.19,10.0,NNW,8.1,-,N/A,,Clear,340,2012-12-26 10:35:00
4:55 AM,35.8,22.6,59,30.20,10.0,North,8.1,-,N/A,,Clear,350,2012-12-26 10:55:00
5:15 AM,35.4,22.6,60,30.20,10.0,North,6.9,-,N/A,,Clear,350,2012-12-26 11:15:00
5:35 AM,34.7,22.6,61,30.20,10.0,NNW,9.2,-,N/A,,Clear,340,2012-12-26 11:35:00
5:55 AM,34.3,22.8,63,30.20,10.0,NNW,9.2,-,N/A,,Clear,340,2012-12-26 11:55:00
6:15 AM,34.5,22.8,62,30.22,10.0,NNW,6.9,-,N/A,,Clear,340,2012-12-26 12:15:00
6:35 AM,34.0,22.6,63,30.23,10.0,NW,6.9,-,N/A,,Clear,320,2012-12-26 12:35:00
6:55 AM,33.1,22.5,65,30.23,10.0,NW,6.9,-,N/A,,Clear,320,2012-12-26 12:55:00
7:15 AM,33.3,22.5,65,30.23,10.0,NNW,9.2,-,N/A,,Clear,340,2012-12-26 13:15:00
7:35 AM,33.8,22.5,63,30.23,10.0,North,11.5,-,N/A,,Clear,350,2012-12-26 13:35:00
7:55 AM,34.5,22.8,62,30.25,10.0,NNW,9.2,-,N/A,,Clear,340,2012-12-26 13:55:00
8:15 AM,35.8,23.0,60,30.25,10.0,NNW,11.5,-,N/A,,Clear,340,2012-12-26 14:15:00
8:35 AM,37.0,23.0,57,30.26,10.0,NNW,13.8,-,N/A,,Clear,340,2012-12-26 14:35:00
8:55 AM,38.3,22.8,54,30.27,10.0,NNW,17.3,20.7,N/A,,Clear,340,2012-12-26 14:55:00
9:15 AM,39.4,23.2,52,30.27,10.0,NNW,15.0,-,N/A,,Clear,340,2012-12-26 15:15:00
9:35 AM,40.6,24.6,53,30.26,10.0,North,12.7,18.4,N/A,,Clear,350,2012-12-26 15:35:00
9:55 AM,41.9,25.2,52,30.27,10.0,NNW,12.7,18.4,N/A,,Clear,340,2012-12-26 15:55:00
10:15 AM,42.8,25.5,51,30.28,10.0,NNE,11.5,18.4,N/A,,Clear,20,2012-12-26 16:15:00
10:35 AM,43.3,25.7,50,30.28,10.0,North,10.4,-,N/A,,Clear,360,2012-12-26 16:35:00
10:55 AM,44.2,25.2,47,30.28,10.0,North,6.9,-,N/A,,Clear,10,2012-12-26 16:55:00
11:15 AM,45.3,25.0,45,30.27,10.0,NNW,9.2,-,N/A,,Clear,340,2012-12-26 17:15:00
11:35 AM,46.2,25.5,44,30.26,10.0,NNE,9.2,-,N/A,,Clear,20,2012-12-26 17:35:00
11:55 AM,47.1,25.9,44,30.25,10.0,North,9.2,-,N/A,,Clear,360,2012-12-26 17:55:00
12:15 PM,48.2,25.7,42,30.24,10.0,North,8.1,-,N/A,,Clear,350,2012-12-26 18:15:00
12:35 PM,48.9,25.7,40,30.23,10.0,WNW,5.8,-,N/A,,Clear,290,2012-12-26 18:35:00
12:55 PM,49.5,25.9,40,30.21,10.0,NNW,6.9,-,N/A,,Clear,340,2012-12-26 18:55:00
1:15 PM,50.4,26.2,39,30.20,10.0,NE,5.8,-,N/A,,Clear,40,2012-12-26 19:15:00
1:35 PM,50.5,26.4,39,30.18,10.0,Calm,Calm,-,N/A,,Clear,0,2012-12-26 19:35:00
1:55 PM,51.6,26.6,38,30.17,10.0,West,4.6,-,N/A,,Clear,260,2012-12-26 19:55:00
2:15 PM,52.0,26.4,37,30.17,10.0,NW,5.8,-,N/A,,Clear,320,2012-12-26 20:15:00
2:35 PM,52.3,26.6,37,30.16,10.0,WNW,3.5,-,N/A,,Clear,300,2012-12-26 20:35:00
2:55 PM,52.7,27.0,37,30.15,10.0,Calm,Calm,-,N/A,,Clear,0,2012-12-26 20:55:00
3:15 PM,53.6,27.1,36,30.15,10.0,NE,6.9,-,N/A,,Clear,40,2012-12-26 21:15:00
3:35 PM,53.2,27.5,37,30.14,10.0,Calm,Calm,-,N/A,,Clear,0,2012-12-26 21:35:00
3:55 PM,53.1,27.3,37,30.13,10.0,NE,4.6,-,N/A,,Clear,40,2012-12-26 21:55:00
4:15 PM,53.2,27.3,37,30.13,10.0,NE,5.8,-,N/A,,Clear,40,2012-12-26 22:15:00
4:35 PM,52.9,27.7,38,30.13,10.0,NNE,4.6,-,N/A,,Clear,30,2012-12-26 22:35:00
4:55 PM,52.2,28.0,39,30.13,10.0,NE,3.5,-,N/A,,Clear,50,2012-12-26 22:55:00
5:15 PM,51.8,28.2,40,30.13,10.0,ENE,4.6,-,N/A,,Clear,70,2012-12-26 23:15:00
5:35 PM,50.9,28.0,41,30.12,10.0,ENE,4.6,-,N/A,,Clear,70,2012-12-26 23:35:00
5:55 PM,49.1,29.5,47,30.13,10.0,East,4.6,-,N/A,,Clear,80,2012-12-26 23:55:00
6:15 PM,46.8,31.5,55,30.13,10.0,East,5.8,-,N/A,,Clear,90,2012-12-27 00:15:00
6:35 PM,45.3,31.6,59,30.14,10.0,East,5.8,-,N/A,,Clear,100,2012-12-27 00:35:00
7:15 PM,43.7,32.0,63,30.15,10.0,ESE,8.1,-,N/A,,Clear,110,2012-12-27 01:15:00
7:35 PM,42.6,32.2,67,30.15,10.0,ESE,4.6,-,N/A,,Clear,110,2012-12-27 01:35:00
7:55 PM,43.5,32.9,66,30.15,10.0,Calm,Calm,-,N/A,,Clear,0,2012-12-27 01:55:00
8:15 PM,45.0,33.6,64,30.14,10.0,Calm,Calm,-,N/A,,Clear,0,2012-12-27 02:15:00
8:35 PM,43.9,33.1,66,30.15,10.0,Calm,Calm,-,N/A,,Clear,0,2012-12-27 02:35:00
8:55 PM,43.2,32.9,67,30.15,10.0,Calm,Calm,-,N/A,,Clear,0,2012-12-27 02:55:00
9:15 PM,42.3,32.7,69,30.15,10.0,Calm,Calm,-,N/A,,Clear,0,2012-12-27 03:15:00
9:35 PM,42.8,34.0,71,30.15,10.0,Calm,Calm,-,N/A,,Clear,0,2012-12-27 03:35:00
9:55 PM,42.6,32.9,68,30.15,10.0,Calm,Calm,-,N/A,,Mostly Cloudy,0,2012-12-27 03:55:00
10:15 PM,42.3,32.5,68,30.14,10.0,Calm,Calm,-,N/A,,Overcast,0,2012-12-27 04:15:00
10:35 PM,44.2,34.5,69,30.14,10.0,Calm,Calm,-,N/A,,Overcast,0,2012-12-27 04:35:00
10:55 PM,45.1,35.6,69,30.13,10.0,North,3.5,-,N/A,,Overcast,10,2012-12-27 04:55:00
11:15 PM,46.6,36.5,68,30.13,10.0,Calm,Calm,-,N/A,,Overcast,0,2012-12-27 05:15:00
11:35 PM,46.8,35.8,66,30.12,10.0,North,3.5,-,N/A,,Overcast,360,2012-12-27 05:35:00
11:55 PM,47.7,36.5,65,30.11,10.0,NNE,3.5,-,N/A,,Overcast,30,2012-12-27 05:55:00